VA7ASI-WX Weather Reports


Display with metric or nautical units.
time (UTC)temp
F
wind
direction
speed
MPH
gust
MPH
rain 1hr
in
rain 24hr
in
rain mn
in
humidity
%
barometer
mb
20260503204845 75 3 5.0 7.0 0.00 0.00 0.00 99 1011.2
20260503204615 75 16 3.0 3.0 0.00 0.00 0.00 99 1011.2
20260503204345 75 18 5.0 5.0 0.00 0.00 0.00 99 1011.3
20260503204145 75 21 5.0 7.0 0.00 0.00 0.00 99 1011.3
20260503203945 75 15 6.0 7.0 0.00 0.00 0.00 99 1011.3
20260503203745 75 1 6.0 7.0 0.00 0.00 0.00 99 1011.3
20260503203515 75 4 5.0 9.0 0.00 0.00 0.00 99 1011.3
20260503203315 75 357 6.0 8.0 0.00 0.00 0.00 99 1011.3
20260503203115 75 353 5.0 6.0 0.00 0.00 0.00 99 1011.4
20260503202845 75 9 6.0 7.0 0.00 0.00 0.00 99 1011.4
20260503202645 75 5 5.0 8.0 0.00 0.00 0.00 99 1011.5
20260503202445 75 5 5.0 7.0 0.00 0.00 0.00 99 1011.5
20260503202245 75 7 5.0 7.0 0.00 0.00 0.00 99 1011.5
20260503202015 74 358 5.0 6.0 0.00 0.00 0.00 99 1011.6
20260503201815 74 354 6.0 8.0 0.00 0.00 0.00 99 1011.6
20260503201615 74 14 5.0 7.0 0.00 0.00 0.00 99 1011.6
20260503201415 74 2 5.0 7.0 0.00 0.00 0.00 99 1011.7
20260503201215 74 0 7.0 9.0 0.00 0.00 0.00 99 1011.6
20260503201015 74 3 5.0 7.0 0.00 0.00 0.00 99 1011.7
20260503200815 74 11 5.0 8.0 0.00 0.00 0.00 99 1011.7
20260503200545 75 16 5.0 8.0 0.00 0.00 0.00 99 1011.7
20260503200345 75 12 5.0 6.0 0.00 0.00 0.00 99 1011.7
20260503200145 75 12 5.0 7.0 0.00 0.00 0.00 99 1011.8
20260503195945 75 5 3.0 7.0 0.00 0.00 0.00 99 1011.8
20260503195745 75 8 3.0 5.0 0.00 0.00 0.00 99 1011.9
20260503195545 76 6 5.0 7.0 0.00 0.00 0.00 99 1011.9
20260503195315 76 32 2.0 5.0 0.00 0.00 0.00 99 1011.8
20260503195115 76 14 1.0 3.0 0.00 0.00 0.00 99 1011.9
20260503194915 75 3 2.0 2.0 0.00 0.00 0.00 99 1011.9
20260503194715 75 0 2.0 2.0 0.00 0.00 0.00 99 1011.9
20260503194515 75 308 1.0 3.0 0.00 0.00 0.00 99 1012.0
20260503194245 74 323 2.0 5.0 0.00 0.00 0.00 99 1012.0
20260503194045 74 332 1.0 3.0 0.00 0.00 0.00 99 1012.0
20260503193845 73 349 5.0 6.0 0.00 0.00 0.00 99 1012.0
20260503193615 73 343 1.0 3.0 0.00 0.00 0.00 99 1012.0
20260503193415 73 345 6.0 9.0 0.00 0.00 0.00 99 1012.1
20260503193215 72 322 5.0 5.0 0.00 0.00 0.00 99 1012.1
20260503193015 72 19 5.0 9.0 0.00 0.00 0.00 99 1012.1
20260503192815 72 6 3.0 7.0 0.00 0.00 0.00 99 1012.1
20260503192615 72 352 7.0 9.0 0.00 0.00 0.00 99 1012.1
20260503192415 72 9 5.0 6.0 0.00 0.00 0.00 99 1012.2
20260503192145 72 355 6.0 7.0 0.00 0.00 0.00 99 1012.2
20260503191945 72 0 6.0 8.0 0.00 0.00 0.00 99 1012.1
20260503191715 71 7 5.0 6.0 0.00 0.00 0.00 99 1012.2
20260503191515 71 0 5.0 8.0 0.00 0.00 0.00 99 1012.2
20260503191315 71 358 6.0 12.0 0.00 0.00 0.00 99 1012.2
20260503191115 71 359 7.0 8.0 0.00 0.00 0.00 99 1012.2
20260503190915 71 0 5.0 6.0 0.00 0.00 0.00 99 1012.3
20260503190715 71 12 5.0 8.0 0.00 0.00 0.00 99 1012.2
20260503190515 72 4 6.0 9.0 0.00 0.00 0.00 99 1012.3
20260503190315 72 9 6.0 9.0 0.00 0.00 0.00 99 1012.3
20260503190045 72 4 5.0 6.0 0.00 0.00 0.00 99 1012.3
20260503185845 72 1 6.0 8.0 0.00 0.00 0.00 99 1012.3
20260503185615 72 348 5.0 9.0 0.00 0.00 0.00 99 1012.3
20260503185345 72 7 6.0 10.0 0.00 0.00 0.00 99 1012.3
20260503185145 72 339 6.0 9.0 0.00 0.00 0.00 99 1012.4
20260503184915 72 0 2.0 3.0 0.00 0.00 0.00 99 1012.4
20260503184715 72 354 6.0 10.0 0.00 0.00 0.00 99 1012.4
20260503184515 72 345 6.0 8.0 0.00 0.00 0.00 99 1012.4
20260503184315 72 338 5.0 5.0 0.00 0.00 0.00 99 1012.4
20260503184045 73 2 6.0 7.0 0.00 0.00 0.00 99 1012.4
20260503183844 73 339 2.0 5.0 0.00 0.00 0.00 99 1012.4
20260503183614 73 5 3.0 8.0 0.00 0.00 0.00 99 1012.4
20260503183414 73 355 5.0 7.0 0.00 0.00 0.00 99 1012.4
20260503183145 74 330 2.0 3.0 0.00 0.00 0.00 99 1012.5
20260503182944 74 321 3.0 3.0 0.00 0.00 0.00 99 1012.5
20260503182744 74 338 3.0 8.0 0.00 0.00 0.00 99 1012.5
20260503182544 74 321 2.0 5.0 0.00 0.00 0.00 99 1012.5
20260503182344 73 316 3.0 8.0 0.00 0.00 0.00 99 1012.5
20260503182145 73 2 3.0 8.0 0.00 0.00 0.00 99 1012.5
20260503181944 73 297 3.0 8.0 0.00 0.00 0.00 99 1012.5
20260503181744 73 341 3.0 9.0 0.00 0.00 0.00 99 1012.6
20260503181544 73 14 2.0 6.0 0.00 0.00 0.00 99 1012.6
20260503181344 73 357 2.0 6.0 0.00 0.00 0.00 99 1012.6
20260503181144 73 354 3.0 8.0 0.00 0.00 0.00 99 1012.5
20260503180914 73 295 5.0 7.0 0.00 0.00 0.00 99 1012.6
20260503180644 73 314 5.0 8.0 0.00 0.00 0.00 99 1012.5
20260503180444 73 294 3.0 6.0 0.00 0.00 0.00 99 1012.6
20260503180244 73 358 5.0 7.0 0.00 0.00 0.00 99 1012.6
20260503180044 73 312 5.0 6.0 0.00 0.00 0.00 99 1012.7
20260503175844 73 336 3.0 7.0 0.00 0.00 0.00 99 1012.6
20260503175644 73 292 3.0 5.0 0.00 0.00 0.00 99 1012.7
20260503175444 73 339 2.0 7.0 0.00 0.00 0.00 99 1012.7
20260503175244 73 284 0.0 3.0 0.00 0.00 0.00 99 1012.7
20260503175014 73 338 2.0 7.0 0.00 0.00 0.00 99 1012.7
20260503174814 73 272 2.0 3.0 0.00 0.00 0.00 99 1012.8
20260503174614 73 306 3.0 3.0 0.00 0.00 0.00 99 1012.8
20260503174414 72 334 1.0 3.0 0.00 0.00 0.00 99 1012.8
20260503174144 72 4 2.0 5.0 0.00 0.00 0.00 99 1012.8
20260503173944 72 284 2.0 5.0 0.00 0.00 0.00 99 1012.8
20260503173744 71 334 3.0 3.0 0.00 0.00 0.00 99 1012.8
20260503173544 71 286 3.0 9.0 0.00 0.00 0.00 99 1012.9
20260503173314 71 352 3.0 5.0 0.00 0.00 0.00 99 1012.9
20260503173114 71 336 3.0 6.0 0.00 0.00 0.00 99 1012.9
20260503172914 71 355 1.0 3.0 0.00 0.00 0.00 99 1012.9
20260503172714 71 356 3.0 8.0 0.00 0.00 0.00 99 1012.9
20260503172514 71 1 5.0 5.0 0.00 0.00 0.00 99 1012.9
20260503172244 71 335 2.0 3.0 0.00 0.00 0.00 99 1012.9
20260503172044 71 341 5.0 7.0 0.00 0.00 0.00 99 1012.9
20260503171814 70 356 5.0 6.0 0.00 0.00 0.00 99 1012.9
20260503171544 70 346 3.0 5.0 0.00 0.00 0.00 99 1013.0
20260503171344 70 5 3.0 5.0 0.00 0.00 0.00 99 1012.9
20260503171144 69 324 3.0 7.0 0.00 0.00 0.00 99 1012.9
20260503170944 69 6 6.0 9.0 0.00 0.00 0.00 99 1012.9
20260503170714 69 16 5.0 8.0 0.00 0.00 0.00 99 1013.0
20260503170444 69 8 5.0 8.0 0.00 0.00 0.00 99 1013.0
20260503170244 69 349 6.0 10.0 0.00 0.00 0.00 99 1013.0
20260503150914 65 19 2.0 3.0 0.00 0.01 0.00 99 1013.5
20260503150714 64 4 3.0 8.0 0.00 0.02 0.00 99 1013.5
20260503150444 65 3 1.0 3.0 0.00 0.02 0.00 99 1013.4
20260503150244 65 6 1.0 3.0 0.00 0.03 0.00 99 1013.4
20260503140244 62 303 0.0 0.0 0.00 0.04 0.00 99 1013.4
20260503131414 62 323 1.0 5.0 0.00 0.04 0.00 99 1013.2
20260503131214 62 26 1.0 2.0 0.00 0.04 0.00 99 1013.2
20260503131014 62 257 0.0 0.0 0.00 0.04 0.00 99 1013.2
20260503130744 62 348 2.0 6.0 0.00 0.04 0.00 99 1013.3
20260503130514 62 266 1.0 3.0 0.00 0.04 0.00 99 1013.2
20260503130314 62 305 0.0 3.0 0.00 0.04 0.00 99 1013.2
20260503120144 63 356 0.0 5.0 0.00 0.04 0.00 99 1013.1
20260503110714 63 355 1.0 3.0 0.00 0.04 0.00 99 1013.3
20260503110514 64 7 0.0 1.0 0.00 0.04 0.00 99 1013.2
20260503110244 64 6 1.0 1.0 0.00 0.04 0.00 99 1013.2
20260503100143 64 309 2.0 3.0 0.00 0.04 0.00 99 1013.1
20260503090343 65 310 0.0 0.0 0.00 0.04 0.00 99 1013.1
20260503090143 65 309 0.0 0.0 0.00 0.04 0.00 99 1013.0
20260503081613 67 336 0.0 1.0 0.00 0.04 0.00 99 1012.9
20260503081413 68 336 0.0 1.0 0.00 0.04 0.00 99 1012.9
20260503081143 68 336 0.0 2.0 0.00 0.04 0.00 99 1012.9
20260503080913 67 338 2.0 3.0 0.00 0.04 0.00 99 1012.9
20260503080643 67 353 1.0 2.0 0.00 0.04 0.00 99 1012.9
20260503080413 67 9 0.0 1.0 0.00 0.04 0.00 99 1012.9
20260503080213 67 334 0.0 1.0 0.00 0.04 0.00 99 1012.9
20260503072843 68 333 0.0 2.0 0.00 0.04 0.00 99 1012.8
20260503072613 68 304 0.0 0.0 0.00 0.04 0.00 99 1012.8
20260503072413 68 316 1.0 2.0 0.00 0.04 0.00 99 1012.8
20260503072213 68 311 0.0 0.0 0.00 0.04 0.00 99 1012.8
20260503071943 68 311 0.0 0.0 0.00 0.04 0.00 99 1012.8
20260503071743 68 311 0.0 0.0 0.00 0.04 0.00 99 1012.7
20260503071513 68 311 0.0 0.0 0.00 0.04 0.00 99 1012.8
20260503071243 68 307 0.0 0.0 0.00 0.04 0.00 99 1012.7
20260503071013 68 307 0.0 0.0 0.00 0.04 0.00 99 1012.7
20260503070813 68 324 0.0 1.0 0.00 0.04 0.00 99 1012.7
20260503070543 68 323 0.0 0.0 0.00 0.04 0.00 99 1012.7
20260503070343 68 323 0.0 0.0 0.00 0.04 0.00 99 1012.6
20260503070143 68 323 0.0 1.0 0.00 0.04 0.00 99 1012.6
20260503060343 71 317 0.0 2.0 0.00 0.04 0.04 99 1012.5
20260503060113 70 316 1.0 1.0 0.00 0.04 0.04 99 1012.4
20260503055113 70 320 0.0 2.0 0.00 0.04 0.04 99 1012.5
20260503054913 70 222 1.0 3.0 0.00 0.04 0.04 99 1012.4
20260503054643 70 334 3.0 3.0 0.00 0.04 0.04 99 1012.4
20260503054413 70 234 0.0 1.0 0.00 0.04 0.04 99 1012.4
20260503054213 70 228 0.0 2.0 0.00 0.04 0.04 99 1012.4
20260503054013 70 254 1.0 3.0 0.00 0.04 0.04 99 1012.4
20260503053813 70 321 0.0 2.0 0.00 0.04 0.04 99 1012.4
20260503053613 69 281 0.0 5.0 0.00 0.04 0.04 99 1012.4
20260503053343 69 254 1.0 2.0 0.00 0.04 0.04 99 1012.4
20260503053143 69 258 1.0 3.0 0.00 0.04 0.04 99 1012.4
20260503052943 69 214 1.0 3.0 0.00 0.04 0.04 99 1012.5
20260503052743 69 234 0.0 0.0 0.00 0.04 0.04 99 1012.5
20260503052513 69 303 0.0 1.0 0.00 0.04 0.04 99 1012.5
20260503052243 68 313 0.0 0.0 0.00 0.04 0.04 99 1012.5
20260503052013 68 245 1.0 1.0 0.00 0.04 0.04 99 1012.5
20260503051813 68 274 1.0 3.0 0.00 0.04 0.04 99 1012.5
20260503051543 68 293 0.0 1.0 0.00 0.04 0.04 99 1012.5
20260503051343 68 281 2.0 3.0 0.00 0.04 0.04 99 1012.5
20260503051143 68 317 0.0 0.0 0.00 0.04 0.04 99 1012.5
20260503050943 68 285 0.0 2.0 0.00 0.04 0.04 99 1012.5
20260503050743 68 241 1.0 5.0 0.00 0.04 0.04 99 1012.5
20260503050543 68 268 0.0 0.0 0.00 0.04 0.04 99 1012.5
20260503050343 68 65 0.0 1.0 0.00 0.04 0.04 99 1012.5
20260503050143 69 27 0.0 0.0 0.00 0.04 0.04 99 1012.5
20260503045943 69 27 0.0 0.0 0.00 0.04 0.04 99 1012.5
20260503045713 69 27 0.0 0.0 0.00 0.04 0.04 99 1012.5
20260503045443 69 10 0.0 0.0 0.00 0.04 0.04 99 1012.5
20260503045213 69 10 0.0 0.0 0.00 0.04 0.04 99 1012.5
20260503045013 69 10 0.0 0.0 0.00 0.04 0.04 99 1012.5
20260503044813 69 10 0.0 0.0 0.00 0.04 0.04 99 1012.5
20260503044613 70 10 0.0 0.0 0.00 0.04 0.04 99 1012.5
20260503044413 70 10 0.0 0.0 0.00 0.04 0.04 99 1012.5
20260503044213 70 10 0.0 0.0 0.00 0.04 0.04 99 1012.5
20260503043943 70 10 0.0 0.0 0.00 0.04 0.04 99 1012.5
20260503043743 70 10 0.0 0.0 0.00 0.04 0.04 99 1012.5
20260503043543 70 10 0.0 0.0 0.00 0.04 0.04 99 1012.5
20260503043343 71 10 0.0 0.0 0.00 0.04 0.04 99 1012.4
20260503043143 71 10 0.0 0.0 0.00 0.04 0.04 99 1012.4
20260503042913 71 10 0.0 0.0 0.00 0.04 0.04 99 1012.4
20260503042713 71 10 0.0 0.0 0.00 0.04 0.04 99 1012.4
20260503042443 71 12 0.0 1.0 0.00 0.04 0.04 99 1012.3
20260503042243 71 0 1.0 3.0 0.00 0.04 0.04 99 1012.4
20260503042043 71 341 2.0 3.0 0.00 0.04 0.04 99 1012.3
20260503041843 71 7 2.0 3.0 0.00 0.04 0.04 99 1012.3
20260503041643 71 355 1.0 2.0 0.00 0.04 0.04 99 1012.3
20260503041413 71 5 1.0 3.0 0.00 0.04 0.04 99 1012.3
20260503041213 71 15 0.0 3.0 0.00 0.04 0.04 99 1012.3
20260503040943 71 317 0.0 2.0 0.00 0.04 0.04 99 1012.2
20260503040743 72 322 0.0 1.0 0.00 0.04 0.04 99 1012.2
20260503040513 72 322 0.0 0.0 0.00 0.04 0.04 99 1012.2
20260503040243 72 303 1.0 2.0 0.00 0.04 0.04 99 1012.2
20260503040043 72 0 0.0 1.0 0.00 0.04 0.04 99 1012.1
20260503035843 72 5 1.0 3.0 0.00 0.04 0.04 99 1012.1
20260503035643 72 308 1.0 6.0 0.00 0.04 0.04 99 1012.1
20260503035413 72 0 0.0 0.0 0.00 0.04 0.04 99 1012.1
20260503035213 72 286 1.0 2.0 0.00 0.04 0.04 99 1012.1
20260503034943 72 312 0.0 1.0 0.00 0.04 0.04 99 1012.0
20260503034743 72 335 1.0 2.0 0.00 0.04 0.04 99 1012.0
20260503034543 72 300 1.0 3.0 0.00 0.04 0.04 99 1011.9
20260503034313 72 325 1.0 2.0 0.00 0.04 0.04 99 1011.9
20260503034113 72 320 1.0 5.0 0.00 0.04 0.04 99 1011.9
20260503033913 72 319 1.0 1.0 0.00 0.04 0.04 99 1011.9
20260503033713 73 317 0.0 1.0 0.00 0.04 0.04 99 1011.9
20260503033513 73 311 1.0 2.0 0.00 0.04 0.04 99 1011.9
20260503033243 73 345 2.0 3.0 0.00 0.04 0.04 99 1011.8
20260503033043 73 341 0.0 3.0 0.00 0.04 0.04 99 1011.8
20260503032813 73 355 1.0 3.0 0.00 0.04 0.04 99 1011.8
20260503032613 73 316 5.0 5.0 0.00 0.04 0.04 99 1011.8
20260503032413 73 293 1.0 2.0 0.00 0.04 0.04 99 1011.8
20260503032143 73 22 1.0 3.0 0.00 0.04 0.04 99 1011.7
20260503031943 73 286 1.0 3.0 0.00 0.04 0.04 99 1011.7
20260503031743 73 318 2.0 5.0 0.00 0.04 0.04 99 1011.8
20260503031513 73 345 0.0 3.0 0.00 0.04 0.04 99 1011.7
20260503031243 73 355 3.0 5.0 0.00 0.04 0.04 99 1011.7
20260503031043 74 311 1.0 2.0 0.00 0.04 0.04 99 1011.7
20260503030813 74 309 0.0 1.0 0.00 0.04 0.04 99 1011.7
20260503030543 74 340 2.0 6.0 0.00 0.04 0.04 99 1011.6
20260503030313 74 339 2.0 3.0 0.00 0.04 0.04 99 1011.6
20260503030113 74 356 2.0 6.0 0.00 0.04 0.04 99 1011.6
20260503025912 74 356 3.0 3.0 0.00 0.04 0.04 99 1011.6
20260503025712 74 353 1.0 2.0 0.00 0.04 0.04 99 1011.6
20260503025443 74 5 1.0 2.0 0.00 0.04 0.04 99 1011.6
20260503025242 74 355 0.0 1.0 0.00 0.04 0.04 99 1011.6
20260503025042 74 12 1.0 2.0 0.00 0.04 0.04 99 1011.6
20260503024842 74 357 1.0 5.0 0.00 0.04 0.04 99 1011.6
20260503024642 74 347 1.0 2.0 0.00 0.04 0.04 99 1011.6
20260503024412 74 5 1.0 1.0 0.00 0.04 0.04 99 1011.7
20260503024142 75 342 1.0 3.0 0.00 0.04 0.04 99 1011.6
20260503023942 75 304 1.0 3.0 0.00 0.04 0.04 99 1011.6
20260503023742 75 37 2.0 3.0 0.00 0.04 0.04 99 1011.7
20260503023512 75 3 3.0 5.0 0.00 0.04 0.04 99 1011.7
20260503023312 75 347 2.0 6.0 0.00 0.04 0.04 99 1011.7
20260503023112 75 359 3.0 8.0 0.00 0.04 0.04 99 1011.6
20260503022912 75 32 2.0 3.0 0.00 0.04 0.04 99 1011.7
20260503022712 75 279 2.0 5.0 0.00 0.04 0.04 99 1011.6
20260503022512 75 338 3.0 12.0 0.00 0.04 0.04 99 1011.7
20260503022242 76 339 3.0 7.0 0.00 0.04 0.04 99 1011.7
20260503022012 76 344 3.0 8.0 0.00 0.04 0.04 99 1011.7
20260503021742 76 328 1.0 3.0 0.00 0.04 0.04 99 1011.7
20260503021542 76 5 2.0 3.0 0.00 0.04 0.04 99 1011.7
20260503021312 76 5 3.0 6.0 0.00 0.04 0.04 99 1011.7
20260503021112 76 353 3.0 6.0 0.00 0.04 0.04 99 1011.7
20260503020912 76 31 1.0 3.0 0.00 0.04 0.04 99 1011.8
20260503020642 76 343 2.0 3.0 0.00 0.04 0.04 99 1011.8
20260503020412 76 0 2.0 8.0 0.00 0.04 0.04 99 1011.8
20260503020212 76 307 2.0 3.0 0.00 0.04 0.04 99 1011.8
20260503015942 77 0 2.0 6.0 0.00 0.04 0.04 99 1011.9
20260503015712 77 344 3.0 9.0 0.00 0.04 0.04 99 1011.9
20260503015442 77 351 2.0 3.0 0.00 0.04 0.04 99 1011.9
20260503015242 77 20 2.0 3.0 0.00 0.04 0.04 99 1011.9
20260503015012 77 323 2.0 3.0 0.00 0.04 0.04 99 1011.9
20260503014742 77 355 2.0 3.0 0.00 0.04 0.04 99 1012.0
20260503014513 77 304 5.0 7.0 0.00 0.04 0.04 99 1012.0
20260503014242 77 342 2.0 7.0 0.00 0.04 0.04 99 1012.0
20260503014012 77 341 1.0 3.0 0.00 0.04 0.04 99 1012.0
20260503013812 76 353 2.0 3.0 0.00 0.04 0.04 99 1012.0
20260503013612 76 355 3.0 7.0 0.00 0.04 0.04 99 1012.0
20260503013342 76 358 2.0 5.0 0.00 0.04 0.04 99 1012.0
20260503013142 77 5 3.0 3.0 0.00 0.04 0.04 99 1012.0
20260503012912 76 350 2.0 3.0 0.00 0.04 0.04 99 1012.0
20260503012642 76 8 2.0 3.0 0.00 0.04 0.04 99 1012.0
20260503012412 76 20 2.0 7.0 0.00 0.04 0.04 99 1012.0
20260503012212 76 336 6.0 8.0 0.00 0.04 0.04 99 1012.1
20260503012012 77 356 5.0 10.0 0.00 0.04 0.04 99 1012.0
20260503011812 77 351 2.0 3.0 0.00 0.04 0.04 99 1012.1
20260503011542 77 347 3.0 6.0 0.00 0.04 0.04 99 1012.1
20260503011312 77 356 2.0 3.0 0.00 0.04 0.04 99 1012.1
20260503011042 77 6 3.0 7.0 0.00 0.04 0.04 99 1012.1
20260503010842 77 5 3.0 5.0 0.00 0.04 0.04 99 1012.1
20260503010642 77 13 2.0 3.0 0.00 0.04 0.04 99 1012.1
20260503010412 77 347 3.0 7.0 0.00 0.04 0.04 99 1012.1
20260503010142 77 0 3.0 7.0 0.00 0.04 0.04 99 1012.1
20260503005942 77 342 2.0 5.0 0.00 0.04 0.04 99 1012.1
20260503005712 77 348 3.0 7.0 0.00 0.04 0.04 99 1012.2
20260503005512 77 355 3.0 8.0 0.00 0.04 0.04 99 1012.2
20260503005312 77 9 5.0 6.0 0.00 0.04 0.04 99 1012.2
20260503005112 78 7 3.0 5.0 0.00 0.04 0.04 99 1012.3
20260503004842 78 353 1.0 3.0 0.00 0.04 0.04 99 1012.3
20260503004642 78 18 2.0 3.0 0.00 0.04 0.04 99 1012.3
20260503004412 78 6 3.0 5.0 0.00 0.04 0.04 99 1012.3
20260503004212 78 357 1.0 3.0 0.00 0.04 0.04 99 1012.4
20260503003942 78 354 2.0 5.0 0.00 0.04 0.04 99 1012.4
20260503003742 78 25 2.0 3.0 0.00 0.04 0.04 99 1012.4
20260503003512 78 17 3.0 8.0 0.00 0.04 0.04 99 1012.4
20260503003312 78 324 0.0 5.0 0.00 0.04 0.04 99 1012.4
20260503003042 78 3 1.0 3.0 0.00 0.04 0.04 99 1012.4
20260503002842 78 321 2.0 3.0 0.00 0.04 0.04 99 1012.4
20260503002612 77 339 2.0 3.0 0.00 0.04 0.04 99 1012.4
20260503002412 77 0 3.0 3.0 0.00 0.04 0.04 99 1012.5
20260503002142 77 10 3.0 5.0 0.00 0.04 0.04 99 1012.5
20260503001912 77 358 3.0 7.0 0.00 0.04 0.04 99 1012.6
20260503001712 77 8 5.0 6.0 0.00 0.04 0.04 99 1012.6
20260503001442 77 12 3.0 7.0 0.00 0.04 0.04 99 1012.6
20260503001212 77 354 2.0 3.0 0.00 0.04 0.04 99 1012.6
20260503000942 77 354 5.0 9.0 0.00 0.04 0.04 99 1012.7
20260503000712 77 9 3.0 3.0 0.00 0.04 0.04 99 1012.7
20260503000512 77 0 5.0 6.0 0.00 0.04 0.04 99 1012.7
20260503000242 77 341 3.0 5.0 0.00 0.04 0.04 99 1012.7
20260503000042 76 348 5.0 3.0 0.00 0.04 0.04 99 1012.7
20260502235842 76 8 2.0 10.0 0.00 0.04 0.04 99 1012.7
20260502235642 76 13 2.0 5.0 0.00 0.04 0.04 99 1012.7
20260502235442 76 20 3.0 6.0 0.00 0.04 0.04 99 1012.8
20260502235212 76 7 5.0 8.0 0.00 0.04 0.04 99 1012.8
20260502235012 76 1 5.0 6.0 0.00 0.04 0.04 99 1012.8
20260502234812 77 1 6.0 9.0 0.00 0.04 0.04 99 1012.9
20260502234612 77 351 5.0 8.0 0.00 0.04 0.04 99 1012.9
20260502234412 77 2 3.0 6.0 0.00 0.04 0.04 99 1012.9
20260502234212 77 35 2.0 3.0 0.00 0.04 0.04 99 1012.9
20260502234012 77 340 2.0 3.0 0.00 0.04 0.04 99 1012.9
20260502233742 77 354 3.0 7.0 0.00 0.04 0.04 99 1012.9
20260502233542 77 1 2.0 3.0 0.00 0.04 0.04 99 1012.9
20260502233312 77 11 3.0 8.0 0.00 0.04 0.04 99 1013.0
20260502233112 77 353 3.0 5.0 0.00 0.04 0.04 99 1013.0
20260502232842 77 343 5.0 7.0 0.00 0.04 0.04 99 1013.0
20260502232642 77 341 3.0 7.0 0.00 0.04 0.04 99 1013.0
20260502232442 77 356 5.0 8.0 0.00 0.04 0.04 99 1013.0
20260502232212 77 356 3.0 5.0 0.00 0.04 0.04 99 1013.1
20260502232012 76 321 2.0 8.0 0.00 0.04 0.04 99 1013.0
20260502231742 76 329 5.0 10.0 0.00 0.04 0.04 99 1013.1
20260502231542 77 345 2.0 6.0 0.00 0.04 0.04 99 1013.1
20260502231342 76 271 1.0 5.0 0.00 0.04 0.04 99 1013.2
20260502231112 76 0 2.0 6.0 0.00 0.04 0.04 99 1013.3
20260502230842 76 12 3.0 10.0 0.00 0.04 0.04 99 1013.3
20260502230612 76 353 1.0 5.0 0.00 0.04 0.04 99 1013.3
20260502230412 76 7 3.0 3.0 0.00 0.04 0.04 99 1013.3
20260502230212 76 4 6.0 8.0 0.00 0.04 0.04 99 1013.4
20260502230012 76 13 3.0 3.0 0.00 0.04 0.04 99 1013.4
20260502225742 76 333 2.0 5.0 0.00 0.04 0.04 99 1013.4
20260502225512 76 14 5.0 10.0 0.00 0.04 0.04 99 1013.5
20260502225312 76 312 5.0 6.0 0.00 0.04 0.04 99 1013.5
20260502225112 76 325 2.0 6.0 0.00 0.04 0.04 99 1013.6
20260502224842 76 9 5.0 7.0 0.00 0.04 0.04 99 1013.6
20260502224642 76 307 3.0 6.0 0.00 0.04 0.04 99 1013.6
20260502224442 76 2 3.0 8.0 0.00 0.04 0.04 99 1013.6
20260502224242 75 335 3.0 7.0 0.00 0.04 0.04 99 1013.7
20260502224012 75 338 3.0 12.0 0.00 0.04 0.04 99 1013.7
20260502223742 75 26 3.0 5.0 0.00 0.04 0.04 99 1013.7
20260502223512 75 4 3.0 8.0 0.00 0.04 0.04 99 1013.8
20260502223242 75 5 5.0 3.0 0.00 0.04 0.04 99 1013.8
20260502223042 75 6 3.0 8.0 0.00 0.04 0.04 99 1013.9
20260502222812 75 22 3.0 6.0 0.00 0.04 0.04 99 1013.9
20260502222542 74 345 3.0 3.0 0.00 0.04 0.04 99 1013.9
20260502222342 74 0 5.0 7.0 0.00 0.04 0.04 99 1013.9
20260502222142 74 7 5.0 8.0 0.00 0.04 0.04 99 1013.9
20260502221942 74 358 5.0 8.0 0.00 0.04 0.04 99 1013.9
20260502221712 74 355 5.0 7.0 0.00 0.04 0.04 99 1013.9
20260502221512 74 9 6.0 10.0 0.00 0.04 0.04 99 1013.9
20260502221242 74 12 5.0 8.0 0.00 0.04 0.04 99 1014.0
20260502221012 74 10 6.0 7.0 0.00 0.04 0.04 99 1013.9
20260502220742 74 0 3.0 8.0 0.00 0.04 0.04 99 1014.0
20260502220542 73 0 5.0 6.0 0.00 0.04 0.04 99 1014.0
20260502220312 74 353 7.0 10.0 0.00 0.04 0.04 99 1014.1
20260502220112 74 9 3.0 7.0 0.00 0.04 0.04 99 1014.1
20260502215912 74 1 6.0 9.0 0.00 0.04 0.04 99 1014.1
20260502215642 74 12 3.0 6.0 0.00 0.04 0.04 99 1014.1
20260502215442 74 1 5.0 9.0 0.00 0.04 0.04 99 1014.1
20260502215212 74 358 3.0 10.0 0.00 0.04 0.04 99 1014.1
20260502214942 74 5 3.0 7.0 0.00 0.04 0.04 99 1014.2
20260502214742 74 1 3.0 5.0 0.00 0.04 0.04 99 1014.2
20260502214542 73 3 3.0 5.0 0.00 0.04 0.04 99 1014.2
20260502214312 73 2 5.0 6.0 0.00 0.04 0.04 99 1014.2
20260502214042 73 8 3.0 5.0 0.00 0.04 0.04 99 1014.3
20260502213812 73 8 6.0 9.0 0.00 0.04 0.04 99 1014.3
20260502213542 73 351 5.0 8.0 0.00 0.04 0.04 99 1014.3
20260502213342 73 357 5.0 7.0 0.00 0.04 0.04 99 1014.3
20260502213142 73 9 3.0 6.0 0.00 0.04 0.04 99 1014.4
20260502212912 73 9 5.0 9.0 0.00 0.04 0.04 99 1014.4
20260502212712 73 1 5.0 12.0 0.00 0.04 0.04 99 1014.4
20260502212442 73 0 7.0 9.0 0.00 0.04 0.04 99 1014.4
20260502212212 73 17 5.0 10.0 0.00 0.04 0.04 99 1014.4
20260502211942 73 6 3.0 5.0 0.00 0.04 0.04 99 1014.4
20260502211712 73 356 3.0 6.0 0.00 0.04 0.04 99 1014.5
20260502211442 72 352 5.0 10.0 0.00 0.04 0.04 99 1014.5
20260502211212 72 358 3.0 8.0 0.00 0.04 0.04 99 1014.6
20260502211012 72 19 6.0 7.0 0.00 0.04 0.04 99 1014.6
20260502210742 72 1 5.0 7.0 0.00 0.04 0.04 99 1014.6
20260502210512 72 358 5.0 8.0 0.00 0.04 0.04 99 1014.6
20260502210242 72 6 5.0 9.0 0.00 0.04 0.04 99 1014.7
20260502210012 72 8 3.0 6.0 0.00 0.04 0.04 99 1014.7
20260502205742 71 356 3.0 6.0 0.00 0.04 0.04 99 1014.7
20260502205512 71 359 5.0 6.0 0.00 0.04 0.04 99 1014.7
20260502205312 71 8 6.0 9.0 0.00 0.04 0.04 99 1014.8